Home > Weather > Kennebunk > Past weeks

Flag for USA Past Weather in Kennebunk, Maine, USA — Yesterday and Last 2 Weeks

Now
82 °F

Warm.


Feels Like: 83 °F
Forecast: 68 / 85 °F
Wind: 8 mph from Northwest

Location: Sanford Municipal

Current Time: Jul 23, 2016 at 11:14:05 AM

Latest Report: Jul 23, 2016 at 9:56 AM


Visibility: 10 mi

Pressure: 29.76 "Hg

Humidity: 53%

Dew Point: 63 °F

Location of KennebunkLocation

Past Weather in Kennebunk — Graph

°F

Kennebunk Temperature Yesterday

Maximum temperature yesterday: 93 °F (at 2:56 PM)
Minimum temperature yesterday: 62 °F (at 12:56 AM)
Average temperature yesterday: 79 °F

High & Low Weather Summary for the Past Weeks

 TemperatureHumidityPressure
High93 °F (Jul 22, 2:56 PM)100% (Jul 11, 9:56 PM)30.20 "Hg (Jul 11, 9:56 PM)
Low50 °F (Jul 20, 5:56 AM)35% (Jul 12, 2:56 PM)29.70 "Hg (Jul 22, 6:56 PM)
Average66 °F79%29.97 "Hg
* Reported Jul 8 9:15 AM — Jul 23 9:56 AM, Kennebunk, Weather by CustomWeather, © 2016

Note: Actual official high and low records may vary slightly from our data, if they occured in-between our weather recording intervals... More about our weather records

Advertising

Kennebunk Weather History for the Previous 24 Hours

Scroll right to see more
 ConditionsComfort  
Time TempWeatherWind HumidityBarometerVisibility
9:56 AM
Sat, Jul 23
82 °FWarm.8 mph53%29.76 "Hg10 mi
8:56 AM81 °FWarm.9 mph56%29.76 "Hg10 mi
7:56 AM77 °FWarm.8 mph64%29.76 "Hg10 mi
6:56 AM72 °FMild.7 mph73%29.75 "Hg10 mi
5:56 AM63 °FMild.5 mph90%29.75 "Hg7 mi
4:56 AM62 °FCool.No wind96%29.74 "Hg10 mi
3:56 AM69 °FMild.6 mph79%29.74 "Hg10 mi
2:56 AM73 °FMild.6 mph69%29.75 "Hg10 mi
1:56 AM68 °FMild.15 mph90%29.76 "Hg10 mi
12:56 AM71 °FMild.No wind81%29.75 "Hg10 mi
11:56 PM
Fri, Jul 22
69 °FMild.No wind87%29.75 "Hg10 mi
10:56 PM74 °FMild.No wind74%29.75 "Hg10 mi
9:56 PM78 °FWarm.5 mph66%29.73 "Hg10 mi
8:56 PM78 °FWarm.3 mph69%29.72 "Hg10 mi
7:56 PM84 °FWarm.5 mph55%29.71 "Hg10 mi
6:56 PM89 °FHot.8 mph45%29.70 "Hg10 mi
5:56 PM91 °FHot.12 mph41%29.70 "Hg10 mi
4:56 PM92 °FHot.14 mph38%29.71 "Hg10 mi
3:56 PM93 °FHot.15 mph41%29.72 "Hg10 mi
2:56 PM93 °FHot.9 mph41%29.72 "Hg9 mi
1:56 PM92 °FHot.16 mph44%29.74 "Hg10 mi
12:56 PM90 °FHot.16 mph48%29.76 "Hg10 mi
11:56 AM88 °FHot.12 mph50%29.78 "Hg10 mi
Weather by CustomWeather, © 2016

See weather overviewHow to use our weather pages